Lakenheath RAF, United Kingdom

6:28 PM GMT on February 09, 2016 (GMT +0000)
Lakenheath Air Base

Weather History for EGUL - January, 2013

Change the Weather History Date:

Tuesday, January 22, 2013

  Actual Average (EGSC) Record (EGSC)
Temperature  
Mean Temperature 25 °F -  
Max Temperature 35 °F 44 °F 51 °F (2012)
Min Temperature 15 °F 36 °F 14 °F (2013)
Degree Days  
Heating Degree Days 40    
Moisture  
Dew Point 23 °F    
Average Humidity 95    
Maximum Humidity 100    
Minimum Humidity 86    
Precipitation  
Precipitation 0.00 in - - ()
Sea Level Pressure  
Sea Level Pressure 29.57 in    
Wind  
Wind Speed 3 mph ()    
Max Wind Speed 10 mph    
Max Gust Speed -    
Visibility 2.7 miles    
Events Fog , Rain , Snow    
Averages and records for this station are not official NWS values.
T = Trace of Precipitation, MM = Missing Value Source: Averaged Metar Reports

Daily Weather History Graph

Daily Weather History Graph

Search for Another Location

Airport or City:

Trip Planner

Search our weather history database for the weather conditions in past years. The results will help you decide how hot, cold, wet, or windy it might be!

Date:

Astronomy

Jan. 22, 2013 Rise Set
Actual Time 7:53 AM GMT 4:26 PM GMT
Civil Twilight 7:14 AM GMT 5:04 PM GMT
Nautical Twilight 6:32 AM GMT 5:46 PM GMT
Astronomical Twilight 5:52 AM GMT 6:27 PM GMT
Moon 12:32 PM GMT (1/22) 4:06 AM GMT (1/22)
Length of Visible Light 9h 50m
Length of Day
8h 33m
Waxing Gibbous, 81% of the Moon is Illuminated
Jan 22
Waxing Gibbous
Jan 27
Full
Feb 3
Last Quarter
Feb 10
New
Feb 17
First Quarter

Hourly Weather History & Observations

Time (GMT) Temp. Windchill Dew Point Humidity Pressure Visibility Wind Dir Wind Speed Gust Speed Precip Events Conditions
12:02 AM 23.0 °F - 21.2 °F 93% 29.51 in 0.2 mi East 2.3 mph - N/A Fog , Rain Light Freezing Rain
12:05 AM 23.0 °F - 21.2 °F 93% 29.51 in 0.2 mi ENE 2.3 mph - N/A Fog , Rain Light Freezing Rain
12:08 AM 23.0 °F - 21.2 °F 93% 29.51 in 0.2 mi ENE 1.2 mph - N/A Fog , Rain Light Freezing Rain
12:11 AM 23.0 °F - 23.0 °F 100% 29.51 in 0.5 mi ENE 1.2 mph - N/A Fog , Rain Light Freezing Rain
12:13 AM 24.8 °F - 23.0 °F 93% 29.51 in 0.5 mi Calm Calm - N/A Fog , Rain Light Freezing Rain
12:16 AM 24.8 °F - 23.0 °F 93% 29.51 in 0.7 mi Calm Calm - N/A Rain Light Freezing Rain
12:18 AM 24.8 °F - 23.0 °F 93% 29.51 in 0.5 mi Calm Calm - N/A Fog , Rain Light Freezing Rain
12:22 AM 23.0 °F - 21.2 °F 93% 29.51 in 0.5 mi NW 1.2 mph - N/A Fog , Rain Light Freezing Rain
12:23 AM 23.0 °F - 21.2 °F 93% 29.51 in 0.2 mi SSW 1.2 mph - N/A Fog , Rain Light Freezing Rain
12:26 AM 21.2 °F - 19.4 °F 93% 29.52 in 0.2 mi Calm Calm - N/A Fog , Rain Light Freezing Rain
12:28 AM 19.4 °F - 17.6 °F 93% 29.52 in - Calm Calm - N/A Fog , Rain Light Freezing Rain
12:29 AM 19.4 °F - 17.6 °F 93% 29.52 in - Calm Calm - N/A Fog , Rain Light Freezing Rain
12:30 AM 19.4 °F - 15.8 °F 86% 29.52 in - Calm Calm - N/A Fog Light Freezing Fog
12:38 AM 17.6 °F - 15.8 °F 93% 29.51 in - ESE 2.3 mph - N/A Fog Light Freezing Fog
12:39 AM 17.6 °F - 17.6 °F 100% 29.51 in 0.2 mi East 2.3 mph - N/A Fog Light Freezing Fog
12:40 AM 19.4 °F - 17.6 °F 93% 29.51 in 0.2 mi East 2.3 mph - N/A Fog Light Freezing Fog
12:48 AM 19.4 °F 14.3 °F 19.4 °F 100% 29.51 in 0.2 mi ESE 3.5 mph - N/A Fog Light Freezing Fog
12:49 AM 21.2 °F 16.4 °F 19.4 °F 93% 29.51 in - ESE 3.5 mph - N/A Fog Light Freezing Fog
12:50 AM 21.2 °F 16.4 °F 19.4 °F 93% 29.51 in - ESE 3.5 mph - N/A Fog Light Freezing Fog
12:52 AM 21.2 °F 16.4 °F 19.4 °F 93% 29.52 in - East 3.5 mph - N/A Fog Light Freezing Fog
12:53 AM 21.2 °F 16.4 °F 19.4 °F 93% 29.52 in 0.2 mi East 3.5 mph - N/A Fog Light Freezing Fog
12:56 AM 21.2 °F 14.9 °F 19.4 °F 93% 29.52 in 0.2 mi East 4.6 mph - N/A Fog Light Freezing Fog
12:58 AM 21.2 °F 16.4 °F 19.4 °F 93% 29.53 in 0.5 mi East 3.5 mph - 0.00 in Fog Light Freezing Fog
1:03 AM 21.2 °F 14.9 °F 19.4 °F 93% 29.52 in 0.5 mi ESE 4.6 mph - N/A Fog Light Freezing Fog
1:10 AM 21.2 °F - 19.4 °F 93% 29.52 in 0.7 mi ESE 2.3 mph - N/A   Clear
1:14 AM 21.2 °F - 19.4 °F 93% 29.52 in 0.5 mi East 1.2 mph - N/A Fog Light Freezing Fog
1:17 AM 21.2 °F 16.4 °F 19.4 °F 93% 29.52 in 0.5 mi ESE 3.5 mph - N/A Fog Light Freezing Fog
1:19 AM 19.4 °F 14.3 °F 19.4 °F 100% 29.51 in 0.5 mi ESE 3.5 mph - N/A Fog , Snow Light Freezing Fog
1:20 AM 19.4 °F - 17.6 °F 93% 29.52 in 0.2 mi ESE 2.3 mph - N/A Fog , Snow Light Freezing Fog
1:21 AM 19.4 °F - 17.6 °F 93% 29.52 in 0.2 mi ESE 2.3 mph - N/A Fog , Snow Light Freezing Fog
1:24 AM 19.4 °F - 17.6 °F 93% 29.52 in 0.2 mi East 1.2 mph - N/A Fog , Snow Light Freezing Fog
1:25 AM 19.4 °F - 17.6 °F 93% 29.52 in - East 2.3 mph - N/A Fog , Snow Light Freezing Fog
1:30 AM 19.4 °F - 17.6 °F 93% 29.52 in 0.2 mi East 2.3 mph - N/A Fog Light Freezing Fog
1:36 AM 19.4 °F - 19.4 °F 100% 29.52 in 0.2 mi Calm Calm - N/A Fog Light Freezing Fog
1:40 AM 21.2 °F - 19.4 °F 93% 29.52 in 0.5 mi NE 2.3 mph - N/A Fog Light Freezing Fog
1:49 AM 17.6 °F - 15.8 °F 93% 29.52 in 0.2 mi Calm Calm - N/A Fog Light Freezing Fog
1:51 AM 17.6 °F - 15.8 °F 93% 29.53 in 0.2 mi Calm Calm - N/A Fog Light Freezing Fog
1:53 AM 17.6 °F - 14.0 °F 86% 29.53 in - Calm Calm - N/A Fog Light Freezing Fog
1:54 AM 17.6 °F - 14.0 °F 86% 29.52 in - Calm Calm - N/A Fog Light Freezing Fog
1:58 AM 15.8 °F - 14.0 °F 93% 29.55 in - Calm Calm - 0.00 in Fog Light Freezing Fog
2:47 AM 17.6 °F - 15.8 °F 93% 29.53 in 0.2 mi Calm Calm - N/A Fog Light Freezing Fog
2:50 AM 17.6 °F - 15.8 °F 93% 29.53 in 0.5 mi Calm Calm - N/A Fog Light Freezing Fog
2:51 AM 17.6 °F - 15.8 °F 93% 29.53 in 0.5 mi Calm Calm - N/A Fog Light Freezing Fog
2:54 AM 17.6 °F - 15.8 °F 93% 29.54 in 1.0 mi Calm Calm - N/A   Clear
2:55 AM 17.6 °F - 15.8 °F 93% 29.54 in 1.5 mi NE 1.2 mph - N/A   Clear
2:58 AM 17.6 °F - 15.8 °F 93% 29.55 in 2.5 mi SE 1.2 mph - N/A   Clear
2:59 AM 17.6 °F - 15.8 °F 93% 29.54 in - SE 1.2 mph - N/A   Clear
3:03 AM 17.6 °F - 15.8 °F 93% 29.54 in 1.7 mi SE 1.2 mph - N/A   Clear
3:05 AM 17.6 °F - 15.8 °F 93% 29.54 in 1.5 mi SE 2.3 mph - N/A   Clear
3:09 AM 17.6 °F - 14.0 °F 86% 29.54 in 0.7 mi Calm Calm - N/A   Clear
3:11 AM 15.8 °F - 14.0 °F 93% 29.54 in 0.5 mi NNE 1.2 mph - N/A Fog Light Freezing Fog
3:12 AM 15.8 °F - 14.0 °F 93% 29.54 in 0.5 mi NNE 1.2 mph - N/A Fog Light Freezing Fog
3:14 AM 15.8 °F - 14.0 °F 93% 29.54 in 0.5 mi Calm Calm - N/A Fog Light Freezing Fog
3:16 AM 15.8 °F - 14.0 °F 93% 29.54 in 0.2 mi NE 1.2 mph - N/A Fog Light Freezing Fog
3:17 AM 15.8 °F - 14.0 °F 93% 29.54 in 0.2 mi ENE 1.2 mph - N/A Fog Light Freezing Fog
3:21 AM 15.8 °F - 14.0 °F 93% 29.54 in 0.2 mi East 2.3 mph - N/A Fog Light Freezing Fog
3:22 AM 15.8 °F - 14.0 °F 93% 29.54 in 0.2 mi ENE 1.2 mph - N/A Fog Light Freezing Fog
3:24 AM 15.8 °F - 14.0 °F 93% 29.54 in 0.2 mi NE 1.2 mph - N/A Fog Light Freezing Fog
3:31 AM 15.8 °F 10.2 °F 14.0 °F 93% 29.54 in 0.2 mi East 3.5 mph - N/A Fog Light Freezing Fog
3:45 AM 17.6 °F - 15.8 °F 93% 29.54 in 0.2 mi East 2.3 mph - N/A Fog Light Freezing Fog
3:47 AM 17.6 °F - 15.8 °F 93% 29.54 in - East 2.3 mph - N/A Fog Light Freezing Drizzle
3:58 AM 17.6 °F - 15.6 °F 92% 29.55 in 0.1 mi NE 1.2 mph - N/A Fog Light Freezing Fog
4:30 AM 17.6 °F - 15.8 °F 93% 29.54 in 0.2 mi NE 2.3 mph - N/A Fog Light Freezing Fog
4:32 AM 17.6 °F - 17.6 °F 100% 29.54 in 0.2 mi NE 2.3 mph - N/A Fog Light Freezing Fog
4:45 AM 19.4 °F 12.8 °F 17.6 °F 93% 29.54 in 0.1 mi ENE 4.6 mph - N/A Fog Light Freezing Fog
4:58 AM 18.7 °F - 16.7 °F 92% 29.55 in 1.0 mi Calm Calm - 0.00 in Fog Light Freezing Fog
5:21 AM 17.6 °F - 15.8 °F 93% 29.54 in 1.0 mi East 2.3 mph - N/A   Clear
5:26 AM 17.6 °F - 15.8 °F 93% 29.55 in - East 2.3 mph - N/A   Clear
5:27 AM 17.6 °F - 15.8 °F 93% 29.55 in 2.5 mi East 2.3 mph - N/A   Light Freezing Rain
5:28 AM 17.6 °F - 15.8 °F 93% 29.55 in 3.1 mi East 2.3 mph - N/A   Clear
5:40 AM 17.6 °F - 15.8 °F 93% 29.55 in 1.2 mi ESE 2.3 mph - N/A   Clear
5:41 AM 17.6 °F - 15.8 °F 93% 29.55 in 1.0 mi ESE 2.3 mph - N/A   Clear
5:53 AM 17.6 °F - 15.8 °F 93% 29.55 in - North - - N/A   Clear
5:54 AM 17.6 °F - 15.8 °F 93% 29.55 in 1.7 mi Calm Calm - N/A   Clear
6:00 AM 17.6 °F - 15.8 °F 93% 29.55 in 2.5 mi South 1.2 mph - N/A   Clear
6:01 AM 17.6 °F - 15.8 °F 93% 29.55 in 3.1 mi South 1.2 mph - N/A   Clear
6:11 AM 17.6 °F - 15.8 °F 93% 29.55 in 3.7 mi SE 2.3 mph - N/A   Mostly Cloudy
6:32 AM 19.4 °F - 17.6 °F 93% 29.56 in 5.0 mi East 1.2 mph - N/A   Overcast
6:48 AM 19.4 °F - 19.4 °F 100% 29.56 in 5.6 mi Variable 1.2 mph - N/A   Overcast
6:51 AM 19.4 °F - 19.4 °F 100% 29.57 in 5.6 mi ESE 1.2 mph - N/A   Overcast
6:53 AM 21.2 °F - 19.4 °F 93% 29.57 in 5.6 mi East 1.2 mph - N/A   Overcast
6:55 AM 21.2 °F - 19.4 °F 93% 29.57 in 5.6 mi Calm Calm - N/A   Overcast
6:57 AM 21.2 °F - 19.4 °F 93% 29.57 in 5.6 mi Calm Calm - N/A   Mostly Cloudy
6:58 AM 21.2 °F - 19.4 °F 93% 29.58 in 5.6 mi Calm Calm - N/A   Mostly Cloudy
7:11 AM 21.2 °F - 19.4 °F 93% 29.56 in 5.6 mi ENE 2.3 mph - N/A   Overcast
7:33 AM 23.0 °F 18.4 °F 21.2 °F 93% 29.56 in 5.6 mi NE 3.5 mph - N/A   Overcast
7:58 AM 24.8 °F - 23.7 °F 96% 29.58 in 5.0 mi NE 2.3 mph - N/A   Overcast
8:58 AM 27.5 °F 22.2 °F 26.8 °F 97% 29.58 in 3.7 mi ENE 4.6 mph - N/A   Mostly Cloudy
9:09 AM 28.4 °F 23.3 °F 26.6 °F 93% 29.58 in 2.5 mi ENE 4.6 mph - N/A   Mostly Cloudy
9:13 AM 28.4 °F 23.3 °F 26.6 °F 93% 29.58 in 3.1 mi NE 4.6 mph - N/A   Mostly Cloudy
9:15 AM 28.4 °F 24.6 °F 26.6 °F 93% 29.58 in 3.1 mi NE 3.5 mph - N/A   Mostly Cloudy
9:41 AM 30.2 °F - 30.2 °F 100% 29.58 in 3.1 mi East 2.3 mph - N/A   Overcast
9:51 AM 32.0 °F - 32.0 °F 100% 29.59 in 3.1 mi Calm Calm - N/A   Overcast
9:52 AM 32.0 °F - 32.0 °F 100% 29.58 in 3.1 mi Calm Calm - N/A   Overcast
9:56 AM 32.0 °F - 32.0 °F 100% 29.58 in 3.1 mi Calm Calm - N/A   Overcast
9:58 AM 31.3 °F - 30.7 °F 98% 29.60 in 3.7 mi Calm Calm - N/A   Overcast
10:11 AM 32.0 °F 25.6 °F 32.0 °F 100% 29.58 in 3.7 mi ENE 6.9 mph - N/A   Scattered Clouds
10:40 AM 32.0 °F 25.6 °F 32.0 °F 100% 29.59 in 3.7 mi ESE 6.9 mph - N/A   Mostly Cloudy
10:45 AM 32.0 °F 27.5 °F 32.0 °F 100% 29.59 in 3.7 mi East 4.6 mph - N/A   Mostly Cloudy
10:58 AM 33.6 °F 26.8 °F 33.1 °F 98% 29.60 in 3.7 mi ESE 8.1 mph - N/A   Overcast
10:59 AM 32.0 °F 26.4 °F 32.0 °F 100% 29.59 in 3.7 mi ESE 5.8 mph - N/A   Overcast
11:01 AM 32.0 °F 25.6 °F 32.0 °F 100% 29.59 in 5.0 mi ESE 6.9 mph - N/A   Light Drizzle
11:02 AM 32.0 °F 26.4 °F 32.0 °F 100% 29.59 in 5.0 mi ESE 5.8 mph - N/A   Light Drizzle
11:06 AM 32.0 °F 26.4 °F 32.0 °F 100% 29.59 in 3.7 mi ESE 5.8 mph - N/A   Overcast
11:17 AM 32.0 °F 25.6 °F 32.0 °F 100% 29.59 in 3.7 mi ESE 6.9 mph - N/A   Overcast
11:24 AM 32.0 °F 24.8 °F 32.0 °F 100% 29.60 in 3.1 mi ESE 8.1 mph - N/A   Overcast
11:27 AM 32.0 °F 25.6 °F 32.0 °F 100% 29.60 in 2.5 mi ESE 6.9 mph - N/A   Overcast
11:31 AM 32.0 °F 24.8 °F 32.0 °F 100% 29.60 in - ESE 8.1 mph - N/A   Overcast
11:34 AM 32.0 °F 25.6 °F 32.0 °F 100% 29.60 in 1.7 mi ESE 6.9 mph - N/A   Overcast
11:42 AM 32.0 °F 25.6 °F 32.0 °F 100% 29.60 in - ESE 6.9 mph - N/A   Overcast
11:49 AM 32.0 °F 24.8 °F 32.0 °F 100% 29.60 in 1.7 mi ESE 8.1 mph - N/A   Overcast
11:55 AM 33.8 °F 27.0 °F 32.0 °F 93% 29.60 in 1.7 mi ESE 8.1 mph - N/A   Mostly Cloudy
11:58 AM 33.8 °F 27.7 °F 33.6 °F 99% 29.61 in 1.7 mi ESE 6.9 mph - 0.00 in   Mostly Cloudy
12:01 PM 33.8 °F 28.6 °F 32.0 °F 93% 29.60 in - ESE 5.8 mph - N/A   Mostly Cloudy
12:04 PM 33.8 °F 28.6 °F 32.0 °F 93% 29.60 in - ESE 5.8 mph - N/A   Mostly Cloudy
12:05 PM 33.8 °F 28.6 °F 32.0 °F 93% 29.60 in - ESE 5.8 mph - N/A   Mostly Cloudy
12:13 PM 32.0 °F 26.4 °F 32.0 °F 100% 29.60 in 2.5 mi ESE 5.8 mph - N/A   Mostly Cloudy
12:43 PM 33.8 °F 29.6 °F 33.8 °F 100% 29.60 in 3.1 mi ESE 4.6 mph - N/A   Overcast
12:58 PM 34.7 °F 30.6 °F 34.5 °F 99% 29.61 in 3.1 mi ESE 4.6 mph - N/A   Overcast
1:58 PM 35.4 °F 31.5 °F 35.2 °F 99% 29.62 in 5.0 mi East 4.6 mph - N/A   Mostly Cloudy
2:40 PM 35.6 °F 28.6 °F 35.6 °F 100% 29.62 in 6.2 mi East 9.2 mph - N/A   Light Drizzle
2:58 PM 35.4 °F 29.7 °F 35.2 °F 99% 29.63 in 6.2 mi East 6.9 mph - 0.00 in   Light Drizzle
3:01 PM 35.6 °F 29.2 °F 35.6 °F 100% 29.62 in 6.2 mi East 8.1 mph - N/A   Partly Cloudy
3:22 PM 35.6 °F 29.9 °F 35.6 °F 100% 29.62 in 6.2 mi East 6.9 mph - N/A   Light Drizzle
3:25 PM 35.6 °F 30.7 °F 35.6 °F 100% 29.63 in 6.2 mi East 5.8 mph - N/A   Partly Cloudy
3:28 PM 35.6 °F 29.9 °F 33.8 °F 93% 29.63 in 6.2 mi East 6.9 mph - N/A   Light Drizzle
3:32 PM 35.6 °F 29.2 °F 33.8 °F 93% 29.63 in 6.2 mi East 8.1 mph - N/A   Partly Cloudy
3:37 PM 35.6 °F 29.2 °F 33.8 °F 93% 29.63 in 6.2 mi East 8.1 mph - N/A   Light Drizzle
3:38 PM 35.6 °F 29.9 °F 33.8 °F 93% 29.63 in 6.2 mi East 6.9 mph - N/A   Partly Cloudy
3:43 PM 35.6 °F 30.7 °F 33.8 °F 93% 29.63 in 6.2 mi East 5.8 mph - N/A   Light Drizzle
3:47 PM 35.6 °F 30.7 °F 33.8 °F 93% 29.63 in 6.2 mi East 5.8 mph - N/A   Partly Cloudy
3:58 PM 34.7 °F 29.6 °F 34.2 °F 98% 29.65 in 6.2 mi East 5.8 mph - 0.00 in   Clear
4:58 PM 34.5 °F 28.6 °F 33.6 °F 97% 29.66 in 6.2 mi East 6.9 mph - N/A   Partly Cloudy
5:58 PM 34.2 °F 29.0 °F 31.3 °F 89% 29.68 in 6.2 mi East 5.8 mph - N/A   Overcast
6:58 PM 32.7 °F 26.4 °F 30.7 °F 92% 29.70 in 6.2 mi ENE 6.9 mph - N/A   Scattered Clouds
7:57 PM 32.0 °F 25.6 °F 32.0 °F 100% 29.69 in 6.2 mi East 6.9 mph - N/A   Mostly Cloudy
7:58 PM 32.0 °F 26.4 °F 32.0 °F 100% 29.70 in 6.2 mi East 5.8 mph - N/A   Mostly Cloudy
8:58 PM 34.0 °F 27.2 °F 31.6 °F 91% 29.73 in 6.2 mi East 8.1 mph - N/A   Mostly Cloudy
9:02 PM 33.8 °F 27.0 °F 32.0 °F 93% 29.71 in 6.2 mi East 8.1 mph - N/A   Mostly Cloudy
9:57 PM 32.0 °F 24.8 °F 32.0 °F 100% 29.73 in 5.6 mi ENE 8.1 mph - N/A   Mostly Cloudy
9:58 PM 32.0 °F 24.8 °F 32.0 °F 100% 29.74 in 5.6 mi ENE 8.1 mph - N/A   Mostly Cloudy
10:23 PM 32.0 °F 24.2 °F 32.0 °F 100% 29.73 in 5.6 mi ENE 9.2 mph - N/A   Mostly Cloudy
10:32 PM 32.0 °F 24.8 °F 30.2 °F 93% 29.74 in 5.6 mi ENE 8.1 mph - N/A   Mostly Cloudy
10:58 PM 33.3 °F 25.1 °F 31.3 °F 92% 29.75 in 6.2 mi ENE 10.4 mph - N/A   Overcast
11:58 PM 33.4 °F 26.6 °F 30.9 °F 90% 29.76 in 6.2 mi NE 8.1 mph - N/A   Overcast